Starlink 3626

operational
NORAD ID: 51792 Int'l Des: 2022-017 Owner: SPXS Country: US Constellation: starlink
LEOCIRCULAR

About Starlink 3626

Description loading...

Live Position

Loading 3D Globe...

Upcoming Passes

Altitude History

Altitude vs Time

uPlot chart will show altitude changes over time

Two-Line Element Set

1 51792U 22017AA 25351.43071814 -.00000170 00000-0 74049-5 0 9998
2 51792 53.2188 358.3950 0001330 91.6400 268.4744 15.08843539211558
Epoch: Dec 17, 2025 • Age: 15 hours

Current Status

Altitude 540.0 km
Velocity 7.60 km/s
Sub-Earth Point 22.87°N, 50.73°E
Launch Date Feb 25, 2022
Age 3.8 years
Type internet

Technical Details

Classification Payload
Mass 297.00 kg
Dry Mass 275.00 kg
Total Mass 297.00 kg
Length 0.20 m
Diameter 2.80 m
Span 9.00 m
Shape Box + pan
Manufacturer SPXS
Bus Type Starlink
Phase Status In Orbit
Owner/State SPXS/US

Large Constellations

Loading constellations...